• In Deutschland
  • Länderverzeichnis
  • Für 7 Tage
  • Wassertemperatur
  • Satellitenkarten
  • Wetterkarte
  • Widgets
  • user-avatar
    Anmelden

    Stündliche Wetter Bad Waldsee

    Heute, 23 Oktober, Montag

    Zeit Temperatur Niederschläge Wind Luftdruck Luftfeuchtigkeit
    00:00 +4°C° 0,3 mm 4 m/S 709 mmHg 93%
    01:00 +4°C° 0,3 mm 4 m/S 709 mmHg 93%
    02:00 +4°C° 0,3 mm 4 m/S 709 mmHg 93%
    03:00 +4°C° 0,3 mm 4 m/S 709 mmHg 94%
    04:00 +4°C° 0,3 mm 4 m/S 709 mmHg 94%
    05:00 +4°C° 0,3 mm 4 m/S 709 mmHg 94%
    06:00 +4°C° 0,3 mm 4 m/S 709 mmHg 94%
    07:00 +4°C° 0,3 mm 4 m/S 710 mmHg 95%
    08:00 +5°C° 0,3 mm 4 m/S 710 mmHg 93%
    09:00 +5°C° 0,3 mm 4 m/S 710 mmHg 92%
    10:00 +5°C° 0,3 mm 4 m/S 710 mmHg 91%
    11:00 +6°C° 0,3 mm 4 m/S 710 mmHg 89%
    12:00 +6°C° 0,3 mm 4 m/S 711 mmHg 87%
    13:00 +7°C° 0,3 mm 4 m/S 711 mmHg 84%
    14:00 +7°C° 0,3 mm 4 m/S 711 mmHg 85%
    15:00 +7°C° 0,3 mm 4 m/S 711 mmHg 85%
    16:00 +7°C° 0,3 mm 4 m/S 711 mmHg 86%
    17:00 +7°C° 0,2 mm 4 m/S 712 mmHg 88%
    18:00 +7°C° 0,2 mm 3 m/S 712 mmHg 91%
    19:00 +7°C° 0,2 mm 3 m/S 712 mmHg 93%
    20:00 +7°C° 0,2 mm 3 m/S 712 mmHg 94%
    21:00 +7°C° 0,2 mm 3 m/S 713 mmHg 94%
    22:00 +7°C° 0,2 mm 3 m/S 713 mmHg 94%
    23:00 +7°C° 0,3 mm 3 m/S 713 mmHg 94%

    Morgen, 24 Oktober, Dienstag

    Zeit Temperatur Niederschläge Wind Luftdruck Luftfeuchtigkeit
    00:00 +7°C° 0,3 mm 3 m/S 713 mmHg 95%
    01:00 +5°C° 0,3 mm 3 m/S 714 mmHg 95%
    02:00 +5°C° 0 mm 3 m/S 714 mmHg 94%
    03:00 +5°C° 0 mm 3 m/S 714 mmHg 93%
    04:00 +5°C° 0 mm 3 m/S 714 mmHg 93%
    05:00 +5°C° 0 mm 3 m/S 714 mmHg 92%
    06:00 +5°C° 0 mm 3 m/S 714 mmHg 91%
    07:00 +7°C° 0 mm 3 m/S 714 mmHg 91%
    08:00 +7°C° 0 mm 3 m/S 714 mmHg 89%
    09:00 +8°C° 0 mm 3 m/S 714 mmHg 87%
    10:00 +9°C° 0 mm 3 m/S 714 mmHg 85%
    11:00 +10°C° 0 mm 2 m/S 714 mmHg 81%
    12:00 +13°C° 0 mm 2 m/S 714 mmHg 77%
    13:00 +14°C° 0 mm 2 m/S 714 mmHg 74%
    14:00 +14°C° 0 mm 2 m/S 714 mmHg 76%
    15:00 +14°C° 0 mm 1 m/S 714 mmHg 79%
    16:00 +14°C° 0 mm 1 m/S 714 mmHg 82%
    17:00 +12°C° 0 mm 1 m/S 714 mmHg 85%
    18:00 +11°C° 0 mm 1 m/S 714 mmHg 89%
    19:00 +8°C° 0 mm 2 m/S 714 mmHg 92%
    20:00 +8°C° 0 mm 2 m/S 714 mmHg 92%
    21:00 +8°C° 0 mm 2 m/S 714 mmHg 92%
    22:00 +8°C° 0 mm 2 m/S 714 mmHg 92%
    23:00 +8°C° 0 mm 1 m/S 714 mmHg 92%

    übermorgen, 25 Oktober, Mittwoch

    Zeit Temperatur Niederschläge Wind Luftdruck Luftfeuchtigkeit
    00:00 +8°C° 0 mm 1 m/S 714 mmHg 91%
    01:00 +8°C° 0 mm 1 m/S 714 mmHg 91%
    02:00 +8°C° 0 mm 1 m/S 714 mmHg 90%
    03:00 +8°C° 0 mm 1 m/S 714 mmHg 90%
    04:00 +8°C° 0 mm 1 m/S 713 mmHg 89%
    05:00 +8°C° 0 mm 1 m/S 713 mmHg 89%
    06:00 +8°C° 0 mm 1 m/S 713 mmHg 88%
    07:00 +8°C° 0 mm 1 m/S 713 mmHg 88%
    08:00 +10°C° 0 mm 1 m/S 714 mmHg 83%
    09:00 +12°C° 0 mm 1 m/S 714 mmHg 79%
    10:00 +13°C° 0 mm 1 m/S 714 mmHg 75%
    11:00 +15°C° 0 mm 1 m/S 714 mmHg 72%
    12:00 +16°C° 0 mm 1 m/S 714 mmHg 69%
    13:00 +18°C° 0 mm 1 m/S 714 mmHg 65%
    14:00 +18°C° 0 mm 1 m/S 714 mmHg 69%
    15:00 +18°C° 0 mm 1 m/S 714 mmHg 73%
    16:00 +16°C° 0 mm 1 m/S 714 mmHg 77%
    17:00 +14°C° 0 mm 1 m/S 714 mmHg 81%
    18:00 +13°C° 0 mm 1 m/S 714 mmHg 84%
    19:00 +11°C° 0 mm 1 m/S 714 mmHg 88%
    20:00 +11°C° 0 mm 1 m/S 714 mmHg 87%
    21:00 +10°C° 0 mm 1 m/S 715 mmHg 87%
    22:00 +10°C° 0 mm 1 m/S 715 mmHg 86%
    23:00 +10°C° 0 mm 1 m/S 715 mmHg 86%

    26 Oktober, Donnerstag

    Zeit Temperatur Niederschläge Wind Luftdruck Luftfeuchtigkeit
    00:00 +10°C° 0 mm 1 m/S 715 mmHg 86%
    01:00 +10°C° 0 mm 1 m/S 715 mmHg 85%
    02:00 +8°C° 0 mm 2 m/S 715 mmHg 85%
    03:00 +8°C° 0 mm 2 m/S 715 mmHg 84%
    04:00 +8°C° 0 mm 2 m/S 714 mmHg 84%
    05:00 +8°C° 0 mm 2 m/S 714 mmHg 83%
    06:00 +8°C° 0 mm 2 m/S 715 mmHg 83%
    07:00 +8°C° 0 mm 2 m/S 715 mmHg 82%
    08:00 +10°C° 0 mm 2 m/S 715 mmHg 77%
    09:00 +13°C° 0 mm 2 m/S 715 mmHg 72%
    10:00 +15°C° 0 mm 2 m/S 715 mmHg 68%
    11:00 +16°C° 0 mm 2 m/S 715 mmHg 65%
    12:00 +17°C° 0 mm 2 m/S 715 mmHg 62%
    13:00 +19°C° 0 mm 2 m/S 715 mmHg 59%
    14:00 +18°C° 0 mm 2 m/S 715 mmHg 63%
    15:00 +18°C° 0 mm 2 m/S 715 mmHg 68%
    16:00 +17°C° 0 mm 2 m/S 714 mmHg 72%
    17:00 +15°C° 0 mm 2 m/S 714 mmHg 75%
    18:00 +14°C° 0 mm 2 m/S 714 mmHg 77%
    19:00 +12°C° 0 mm 2 m/S 714 mmHg 79%
    20:00 +12°C° 0 mm 2 m/S 714 mmHg 79%
    21:00 +12°C° 0 mm 2 m/S 714 mmHg 79%
    22:00 +10°C° 0 mm 2 m/S 714 mmHg 79%
    23:00 +10°C° 0 mm 2 m/S 714 mmHg 79%

    27 Oktober, Freitag

    Zeit Temperatur Niederschläge Wind Luftdruck Luftfeuchtigkeit
    00:00 +10°C° 0 mm 2 m/S 713 mmHg 79%
    01:00 +10°C° 0 mm 2 m/S 713 mmHg 79%
    02:00 +9°C° 0 mm 3 m/S 713 mmHg 80%
    03:00 +9°C° 0 mm 3 m/S 712 mmHg 81%
    04:00 +9°C° 0 mm 3 m/S 712 mmHg 82%
    05:00 +9°C° 0 mm 3 m/S 712 mmHg 83%
    06:00 +9°C° 0 mm 3 m/S 712 mmHg 83%
    07:00 +9°C° 0 mm 3 m/S 712 mmHg 83%
    08:00 +10°C° 0 mm 4 m/S 711 mmHg 80%
    09:00 +12°C° 0 mm 4 m/S 711 mmHg 78%
    10:00 +13°C° 0 mm 4 m/S 711 mmHg 75%
    11:00 +13°C° 0,1 mm 4 m/S 711 mmHg 75%
    12:00 +13°C° 0,1 mm 4 m/S 710 mmHg 75%
    13:00 +14°C° 0,1 mm 4 m/S 710 mmHg 76%
    14:00 +13°C° 0,8 mm 4 m/S 710 mmHg 81%
    15:00 +12°C° 0,8 mm 4 m/S 710 mmHg 87%
    16:00 +11°C° 0,8 mm 4 m/S 709 mmHg 93%
    17:00 +10°C° 1,1 mm 3 m/S 710 mmHg 94%
    18:00 +10°C° 1,1 mm 3 m/S 710 mmHg 95%
    19:00 +9°C° 1,1 mm 2 m/S 710 mmHg 96%
    20:00 +8°C° 0,4 mm 2 m/S 710 mmHg 96%
    21:00 +7°C° 0,4 mm 2 m/S 710 mmHg 96%
    22:00 +8°C° 0,4 mm 1 m/S 710 mmHg 96%
    23:00 +7°C° 0 mm 1 m/S 710 mmHg 96%

    28 Oktober, Samstag

    Zeit Temperatur Niederschläge Wind Luftdruck Luftfeuchtigkeit
    00:00 +7°C° 0 mm 1 m/S 710 mmHg 96%
    01:00 +6°C° 0 mm 2 m/S 710 mmHg 96%
    02:00 +6°C° 0 mm 2 m/S 709 mmHg 96%
    03:00 +5°C° 0 mm 3 m/S 709 mmHg 95%
    04:00 +5°C° 0 mm 3 m/S 709 mmHg 95%
    05:00 +5°C° 0 mm 4 m/S 708 mmHg 93%
    06:00 +5°C° 0 mm 4 m/S 708 mmHg 92%
    07:00 +5°C° 0 mm 5 m/S 708 mmHg 91%
    08:00 +5°C° 0,1 mm 5 m/S 708 mmHg 90%
    09:00 +4°C° 0,1 mm 6 m/S 708 mmHg 88%
    10:00 +4°C° 0,1 mm 6 m/S 708 mmHg 86%
    11:00 +4°C° 0,5 mm 7 m/S 708 mmHg 87%
    12:00 +4°C° 0,5 mm 7 m/S 708 mmHg 87%
    13:00 +4°C° 0,5 mm 7 m/S 707 mmHg 88%
    14:00 +4°C° 0,4 mm 7 m/S 707 mmHg 89%
    15:00 +4°C° 0,4 mm 7 m/S 707 mmHg 89%
    16:00 +4°C° 0,4 mm 7 m/S 707 mmHg 90%
    17:00 +4°C° 0,4 mm 7 m/S 707 mmHg 91%
    18:00 +4°C° 0,4 mm 7 m/S 708 mmHg 91%
    19:00 +4°C° 0,4 mm 7 m/S 708 mmHg 92%
    20:00 +4°C° 0,6 mm 6 m/S 709 mmHg 92%
    21:00 +5°C° 0,6 mm 5 m/S 709 mmHg 93%
    22:00 +5°C° 0,6 mm 5 m/S 710 mmHg 93%
    23:00 +5°C° 0,2 mm 4 m/S 710 mmHg 94%

    29 Oktober, Sonntag

    Zeit Temperatur Niederschläge Wind Luftdruck Luftfeuchtigkeit
    00:00 +4°C° 0,2 mm 4 m/S 710 mmHg 94%
    01:00 +4°C° 0,2 mm 3 m/S 711 mmHg 95%
    02:00 +4°C° 0,1 mm 3 m/S 711 mmHg 96%
    03:00 +3°C° 0,1 mm 3 m/S 711 mmHg 96%
    04:00 +4°C° 0,1 mm 2 m/S 711 mmHg 97%
    05:00 +4°C° 0 mm 2 m/S 712 mmHg 97%
    06:00 +3°C° 0 mm 2 m/S 712 mmHg 97%
    07:00 +3°C° 0 mm 2 m/S 712 mmHg 97%
    08:00 +5°C° 0 mm 2 m/S 712 mmHg 93%
    09:00 +5°C° 0 mm 3 m/S 712 mmHg 90%
    10:00 +7°C° 0 mm 3 m/S 712 mmHg 86%
    11:00 +8°C° 0 mm 3 m/S 711 mmHg 82%
    12:00 +9°C° 0 mm 3 m/S 711 mmHg 77%
    13:00 +10°C° 0 mm 3 m/S 711 mmHg 73%
    14:00 +10°C° 0 mm 3 m/S 710 mmHg 75%
    15:00 +9°C° 0 mm 3 m/S 710 mmHg 77%
    16:00 +9°C° 0 mm 3 m/S 710 mmHg 79%
    17:00 +8°C° 0 mm 3 m/S 710 mmHg 82%
    18:00 +7°C° 0 mm 3 m/S 710 mmHg 85%
    19:00 +5°C° 0 mm 3 m/S 710 mmHg 87%
    20:00 +5°C° 0 mm 3 m/S 710 mmHg 89%
    21:00 +5°C° 0 mm 3 m/S 711 mmHg 90%
    22:00 +5°C° 0 mm 4 m/S 711 mmHg 91%
    23:00 +4°C° 0 mm 4 m/S 710 mmHg 91%
    Mehr zeigen